Regional Weather Roundup
Issued by NWS

Home | Current Version | Previous Version | Graphics & Text | Print | Product List | Glossary Off
Versions: 1 2 3 4 5 6 7 8 9 10 11 12 13 14 15 16 17 18 19 20 21 22 23 24 25 26 27 28 29 30 31 32 33 34 35 36 37 38 39 40 41 42 43 44 45 46 47 48 49 50

150
ASUS43 KMKX 241500
RWRWI

WISCONSIN REGIONAL WEATHER ROUNDUP
NATIONAL WEATHER SERVICE MILWAUKEE/SULLIVAN WI
1000 AM CDT WED AUG 24 2016

NOTE: "FAIR" INDICATES FEW OR NO CLOUDS BELOW 12,000 FEET WITH NO
SIGNIFICANT WEATHER AND/OR OBSTRUCTIONS TO VISIBILITY.

WIZ001-002-006>008-014>016-023>028-241600-
NORTHWEST WISCONSIN

CITY           SKY/WX    TMP DP  RH WIND       PRES   REMARKS
SUPERIOR ARPT  MOSUNNY   71  66  86 W5        29.81S
ASHLAND        CLOUDY    72  66  81 SW6       29.82S
HAYWARD        CLOUDY    69  66  90 CALM      29.84S
SIREN          CLOUDY    69  66  92 W6        29.85R
CUMBERLAND     CLOUDY    66  64  94 W7        29.86R
RICE LAKE      CLOUDY    68  65  92 SW3       29.87R FOG
CHETEK         NOT AVBL
LADYSMITH      CLOUDY    68  67  97 SW8       29.86R
EAU CLAIRE     NOT AVBL
MENOMONIE      CLOUDY    72  68  89 W7        29.87R
NEW RICHMOND   CLOUDY    70  67  89 NW6       29.87R
OSCEOLA        PTSUNNY   71  71 100 W3        29.89R
$$

WIZ003>005-009-010-017-018-241600-
NORTH CENTRAL WISCONSIN

CITY           SKY/WX    TMP DP  RH WIND       PRES   REMARKS
MANITOWISH WTR NOT AVBL
ARBOR VITAE    DRIZZLE   67  66  95 SW3       29.84S
WOODRUFF       DRIZZLE   67  66  95 SW3       29.84S
RHINELANDER    CLOUDY    67  67 100 SW10      29.86S FOG
EAGLE RIVER    HVY RAIN  65  65 100 SW5       29.84F
LAND O LAKES   DRIZZLE   66  66 100 CALM      29.85F
PHILLIPS       CLOUDY    66  66 100 SW7       29.84R FOG
TOMAHAWK       LGT RAIN  65  64  96 CALM      29.86R
MEDFORD        CLOUDY    65  65 100 SW7       29.87R FOG
MERRILL        CLOUDY    67  67  99 SW7G16    29.87R
$$

WIZ029-030-035-036-043>047-241600-
CENTRAL WISCONSIN

CITY           SKY/WX    TMP DP  RH WIND       PRES   REMARKS
WAUSAU         LGT RAIN  67  65  93 SW9       29.86R FOG
MOSINEE        DRIZZLE   66  66 100 SW8       29.88S
MARSHFIELD     LGT RAIN  68  65  90 SW8       29.87S FOG
STEVENS POINT  CLOUDY    66  65  97 S9        29.88S
WAUPACA        CLOUDY    71  70  98 S7        29.87F
WAUTOMA        CLOUDY    69  67  93 SW7       29.90R
WISC RAPIDS    CLOUDY    68  68 100 SW8       29.89S
CAMP DOUGLAS   NOT AVBL
$$

WIZ011>013-019>022-031-037>040-048>050-241600-
NORTHEAST WISCONSIN

CITY           SKY/WX    TMP DP  RH WIND       PRES   REMARKS
ANTIGO         CLOUDY    66  66 100 SW9       29.88R
SHAWANO        CLOUDY    71  69  95 SW5       29.86S
OCONTO         NOT AVBL
STURGEON BAY   CLOUDY    70  68  93 SW12      29.86F
GREEN BAY      CLOUDY    70  70 100 SW7       29.86F
MANITOWOC      CLOUDY    72  66  83 MISG      29.87F
APPLETON       CLOUDY    70  68  94 SW13      29.87F
CLINTONVILLE   CLOUDY    70  66  88 SW10      29.86S
OSHKOSH        CLOUDY    70  66  87 SW10      29.88S
$$

WIZ032>034-041-042-053>061-241600-
SOUTHWEST WISCONSIN

CITY           SKY/WX    TMP DP  RH WIND       PRES   REMARKS
LA CROSSE      CLOUDY    72 N/A N/A S10       29.87R
SPARTA         CLOUDY    68  66  93 CALM      29.89S
VIROQUA        CLOUDY    68  68 100 S8        29.91S
BOSCOBEL       CLOUDY    74  70  87 SW8       29.90F
PRAIRIE DU CHI CLOUDY    70  68  95 CALM      29.89S
PLATTEVILLE    CLOUDY    70  70  99 SE6       29.94S
$$

WIZ056-057-062-063-064-067-068-241600-
SOUTH CENTRAL WISCONSIN

CITY           SKY/WX    TMP DP  RH WIND       PRES   REMARKS
REEDSBURG      NOT AVBL
BARABOO/DELLS  CLOUDY    67  65  90 SW8       29.91R
LONE ROCK      NOT AVBL
MINERAL POINT  CLOUDY    70  68  94 S8        29.94S
MADISON        CLOUDY    70  66  87 S10       29.92R
MIDDLETON      CLOUDY    71  67  89 S6        29.93R
WATERTOWN      MOSUNNY   69  69 100 S7        29.91R
MONROE         CLOUDY    70  68  94 S10       29.94R
JANESVILLE     CLOUDY    72  72 100 S8        29.92S
$$

WIZ051-052-058>065-066-070>072-241600-
SOUTHEAST WISCONSIN

CITY           SKY/WX    TMP DP  RH WIND       PRES   REMARKS
MILWAUKEE      CLOUDY    74  70  87 S13       29.92F
WAUKESHA       PTSUNNY   70  66  88 S10G18    29.95R
MILWAUKEE/TIMM MOSUNNY   70  66  88 S12       29.94F
RACINE         LGT RAIN  72  69  90 S7        29.96F
BURLINGTON     CLOUDY    69  67  94 S3        29.95F
KENOSHA        CLOUDY    73  71  93 S13       29.94F
FOND DU LAC    CLOUDY    70  66  87 SW7       29.89S
SHEBOYGAN      CLOUDY    71  67  87 SW9       29.88F
WEST BEND      PTSUNNY   68  64  88 S7        29.88F
JUNEAU         CLOUDY    68  66  94 S8        29.92R
$$

LSZ147-162-241600-
LAKE SUPERIOR

STATION/POSITION TIME  TEMP    WIND        PRES    WAVE
                       AIR SEA DIR/SP/G            HT/PER
                 (UTC) (F)     (DEG/KT/KT) (MB)    (FT/S)
W MID LAKE BUOY  1350   68 67  170/  6/  6 1008.5S   1
DEVILS ISLAND    1400   70     210/  1/  2 1009.0F
PORT WING        1440   71     200/  3/  5 1009.5S
SAXON HARBOR     1400   70     200/  5/  7 1009.1
$$

LMZ867-665-643>646-241600-
LAKE MICHIGAN

STATION/POSITION TIME  TEMP    WIND        PRES    WAVE
                       AIR SEA DIR/SP/G            HT/PER
                 (UTC) (F)     (DEG/KT/KT) (MB)    (FT/S)
CHAMBERS ISLAND  1400   70     180/  5/ 10 1010.8F
S GREEN BAY BUOY 1400   71 73  190/ 14/ 16 1010.3F
N MID LAKE BUOY  1350   68 70  160/ 10/ 14 1011.1F   4/ 6
NORTHPORT PIER   1400   69     170/  6/ 10 1011.2F
SISTER BAY       1422   71     210/ 11/ 13   N/A
KEWAUNEE LAKESHO 1400   68     210/  5/  7 1011.1F
SHEBOYGAN LAKESH 1400   68     200/ 13/ 15 1012.0F
PORT WASHINGTON  1400   69     240/  5/ 22 1013.9F
ATWATER BUOY     1400   62     180/  6/  8   N/A
MILWAUKEE LAKESH 1410   68     160/ 15/ 16   N/A
S MID LAKE BUOY  1350   74 75  200/ 23/ 29 1015.0R   5/ 5
KENOSHA   LAKESH 1400   71     260/ 12/ 19 1015.6S
$$

TC  - TEMPERATURE IN CELSIUS
VSB - VISIBILITY IN STATUTE MILES
WCI - WIND CHILL INDEX
HX  - HEAT INDEX





USA.gov is the U.S. government's official web portal to all federal, state and local government web resources and services.